FW6684 Weather Reports


Display with metric or nautical units.
time (UTC)temp
F
wind
direction
speed
MPH
gust
MPH
rain 1hr
in
rain 24hr
in
rain mn
in
humidity
%
barometer
mb
20260905111042 65 331 3.0 11.0 0.00 0.00 0.00 64 1025.9
20260905110542 65 324 3.0 11.0 0.00 0.00 0.00 63 1025.7
20260905110101 64 289 6.0 11.0 0.00 0.00 0.00 63 1025.8
20260905105543 64 304 7.0 10.0 0.00 0.00 0.00 65 1025.8
20260905105042 64 325 7.0 12.0 0.00 0.00 0.00 65 1025.7
20260905104559 64 325 6.0 12.0 0.00 0.00 0.00 67 1025.8
20260905104042 64 299 5.0 11.0 0.00 0.00 0.00 67 1025.8
20260905103547 63 317 7.0 13.0 0.00 0.00 0.00 67 1025.8
20260905103104 63 266 7.0 13.0 0.00 0.00 0.00 67 1025.8
20260905102542 63 322 7.0 14.0 0.00 0.00 0.00 67 1025.7
20260905102042 64 318 8.0 14.0 0.00 0.00 0.00 67 1025.6
20260905101559 64 294 5.0 11.0 0.00 0.00 0.00 69 1025.7
20260905101043 63 294 5.0 12.0 0.00 0.00 0.00 68 1025.6
20260905100545 64 327 5.0 12.0 0.00 0.00 0.00 66 1025.6
20260905100121 64 299 5.0 12.0 0.00 0.00 0.00 68 1025.6
20260905095542 63 219 7.0 13.0 0.00 0.00 0.00 69 1025.6
20260905095042 63 313 5.0 13.0 0.00 0.00 0.00 69 1025.5
20260905094558 63 309 7.0 11.0 0.00 0.00 0.00 70 1025.5
20260905094042 63 343 3.0 10.0 0.00 0.00 0.00 71 1025.3
20260905093544 62 272 4.0 12.0 0.00 0.00 0.00 72 1025.3
20260905093059 62 300 4.0 12.0 0.00 0.00 0.00 73 1025.3
20260905092544 62 313 6.0 12.0 0.00 0.00 0.00 72 1025.3
20260905092043 62 315 4.0 12.0 0.00 0.00 0.00 74 1025.4
20260905091600 62 305 5.0 12.0 0.00 0.00 0.00 73 1025.4
20260905091045 62 254 6.0 10.0 0.00 0.00 0.00 73 1025.2
20260905090544 61 281 5.0 10.0 0.00 0.00 0.00 74 1025.2
20260905090134 61 280 4.0 12.0 0.00 0.00 0.00 75 1025.1
20260905085545 61 242 6.0 12.0 0.00 0.00 0.00 75 1025.1
20260905085049 61 315 6.0 12.0 0.00 0.00 0.00 75 1025.2
20260905084603 61 285 7.0 12.0 0.00 0.00 0.00 76 1025.1
20260905084044 60 314 7.0 12.0 0.00 0.00 0.00 77 1025.1
20260905083544 60 309 6.0 13.0 0.00 0.00 0.00 78 1025.1
20260905083057 60 306 7.0 13.0 0.00 0.00 0.00 78 1024.9
20260905082544 60 294 6.0 11.0 0.00 0.00 0.00 79 1025.1
20260905082044 60 258 3.0 10.0 0.00 0.00 0.00 80 1025.0
20260905081604 59 284 4.0 10.0 0.00 0.00 0.00 80 1025.0
20260905081043 59 250 5.0 11.0 0.00 0.00 0.00 80 1024.9
20260905080546 59 271 5.0 11.0 0.00 0.00 0.00 81 1024.9
20260905080059 59 246 4.0 12.0 0.00 0.00 0.00 82 1024.9
20260905075544 58 259 4.0 12.0 0.00 0.03 0.00 82 1024.9
20260905075044 58 266 5.0 12.0 0.00 0.03 0.00 83 1024.9
20260905074607 58 223 4.0 8.0 0.00 0.03 0.00 84 1024.9
20260905074043 57 262 3.0 7.0 0.00 0.03 0.00 85 1024.7
20260905073547 57 268 3.0 11.0 0.00 0.03 0.00 86 1024.6
20260905073106 56 239 5.0 11.0 0.00 0.03 0.00 87 1024.6
20260905072543 56 244 1.0 11.0 0.00 0.03 0.00 89 1024.8
20260905072046 55 277 6.0 11.0 0.00 0.03 0.00 89 1024.7
20260905071600 55 241 2.0 7.0 0.00 0.03 0.00 91 1024.5
20260905071047 55 263 3.0 8.0 0.00 0.03 0.00 91 1024.5
20260905070544 54 234 4.0 8.0 0.00 0.03 0.00 91 1024.4
20260905065544 54 237 2.0 7.0 0.00 0.03 0.00 92 1024.3
20260905065046 53 240 2.0 6.0 0.00 0.03 0.00 92 1024.3
20260905064602 53 267 1.0 5.0 0.00 0.03 0.00 93 1024.2
20260905064043 53 229 1.0 6.0 0.00 0.03 0.00 93 1024.4
20260905063548 53 257 2.0 6.0 0.00 0.03 0.00 93 1024.3
20260905063105 53 194 1.0 3.0 0.00 0.03 0.00 93 1024.3
20260905062544 52 0 0.0 2.0 0.00 0.03 0.00 93 1024.3
20260905062045 52 0 0.0 3.0 0.00 0.03 0.00 93 1024.1
20260905061604 52 0 0.0 3.0 0.00 0.03 0.00 93 1023.9
20260905061128 52 189 0.0 2.0 0.00 0.03 0.00 93 1023.9
20260905060544 52 0 0.0 3.0 0.00 0.03 0.00 93 1023.8
20260905055547 52 188 1.0 3.0 0.00 0.03 0.00 93 1023.7
20260905055044 52 0 0.0 2.0 0.00 0.03 0.00 93 1023.7
20260905054600 51 0 0.0 1.0 0.00 0.03 0.00 92 1023.7
20260905054044 51 0 0.0 3.0 0.00 0.03 0.00 92 1023.6
20260905053545 52 0 0.0 3.0 0.00 0.03 0.00 92 1023.6
20260905053059 52 188 0.0 3.0 0.00 0.03 0.00 92 1023.5
20260905052545 52 0 0.0 3.0 0.00 0.03 0.00 92 1023.5
20260905052044 52 188 0.0 3.0 0.00 0.03 0.00 92 1023.4
20260905051600 52 0 0.0 2.0 0.00 0.03 0.00 91 1023.2
20260905051044 52 0 0.0 2.0 0.00 0.03 0.00 92 1023.3
20260905050545 52 0 0.0 2.0 0.00 0.03 0.00 91 1023.2
20260905050107 52 0 0.0 2.0 0.00 0.03 0.00 92 1023.1
20260905045544 52 229 0.0 1.0 0.00 0.03 0.00 92 1023.1
20260905045044 52 0 0.0 2.0 0.00 0.03 0.00 91 1023.1
20260905044557 52 0 0.0 4.0 0.00 0.03 0.00 92 1023.1
20260905044044 53 0 0.0 4.0 0.00 0.03 0.00 91 1023.1
20260905043545 53 229 1.0 4.0 0.00 0.03 0.00 92 1023.0
20260905043106 53 0 2.0 4.0 0.00 0.03 0.00 91 1022.9
20260905042543 53 234 1.0 6.0 0.00 0.03 0.00 91 1022.9
20260905042044 53 0 1.0 6.0 0.00 0.03 0.00 91 1022.9
20260905041558 53 231 2.0 4.0 0.00 0.03 0.00 91 1022.8
20260905041044 53 217 2.0 5.0 0.00 0.03 0.00 91 1022.9
20260905040544 53 249 2.0 7.0 0.00 0.03 0.00 91 1022.8
20260905040105 53 246 2.0 9.0 0.00 0.03 0.00 91 1022.8
20260905035544 53 257 3.0 9.0 0.00 0.03 0.00 91 1022.8
20260905035044 53 246 4.0 9.0 0.00 0.03 0.00 91 1022.8
20260905034600 53 251 5.0 11.0 0.00 0.03 0.00 91 1022.7
20260905034043 53 256 5.0 11.0 0.00 0.03 0.00 91 1022.4
20260905033544 53 247 3.0 8.0 0.00 0.03 0.00 91 1022.5
20260905033104 53 229 3.0 9.0 0.00 0.03 0.00 91 1022.6
20260905032545 53 272 3.0 9.0 0.00 0.03 0.00 91 1022.5
20260905032044 53 256 5.0 11.0 0.00 0.03 0.00 91 1022.5
20260905031617 53 261 5.0 11.0 0.00 0.03 0.00 91 1022.3
20260905031043 53 209 3.0 8.0 0.00 0.03 0.00 90 1022.4
20260905030545 54 250 3.0 8.0 0.00 0.03 0.00 90 1022.3
20260905030101 54 269 3.0 8.0 0.00 0.03 0.00 90 1022.2
20260905025544 54 245 3.0 8.0 0.00 0.03 0.00 90 1022.2
20260905025044 54 213 4.0 8.0 0.00 0.03 0.00 90 1022.0
20260905024600 54 207 4.0 8.0 0.00 0.03 0.00 90 1021.9
20260905024044 54 206 3.0 7.0 0.00 0.03 0.00 90 1022.1
20260905023546 54 237 2.0 6.0 0.00 0.03 0.00 90 1022.0
20260905023103 54 219 2.0 6.0 0.00 0.03 0.00 90 1021.9
20260905022544 54 236 2.0 6.0 0.00 0.03 0.00 90 1021.8
20260905022042 54 238 2.0 5.0 0.00 0.03 0.00 90 1021.8
20260905021603 54 219 2.0 6.0 0.00 0.03 0.00 89 1021.6
20260905021044 54 217 3.0 6.0 0.00 0.03 0.00 89 1021.7
20260905020544 54 208 2.0 7.0 0.00 0.03 0.00 89 1021.7
20260905015544 54 236 2.0 5.0 0.00 0.03 0.00 89 1021.8
20260905015044 54 223 2.0 6.0 0.00 0.03 0.00 89 1021.8
20260905014601 54 225 2.0 6.0 0.00 0.03 0.00 89 1021.7
20260905014044 54 198 1.0 6.0 0.00 0.03 0.00 89 1021.7
20260905013543 54 216 2.0 5.0 0.00 0.03 0.00 88 1021.7
20260905013104 54 225 2.0 5.0 0.00 0.03 0.00 88 1021.8
20260905012548 54 220 2.0 5.0 0.00 0.03 0.00 88 1021.7
20260905012045 54 243 2.0 5.0 0.00 0.03 0.00 88 1021.6
20260905011602 54 236 2.0 7.0 0.00 0.03 0.00 88 1021.5
20260905011044 54 217 3.0 7.0 0.00 0.03 0.00 88 1021.5
20260905010545 55 217 2.0 6.0 0.00 0.03 0.00 88 1021.4
20260905010107 55 205 2.0 6.0 0.00 0.03 0.00 87 1021.4
20260905005544 55 234 2.0 6.0 0.00 0.03 0.00 87 1021.4
20260905005044 55 247 3.0 7.0 0.00 0.03 0.00 87 1021.5
20260905004603 55 208 3.0 7.0 0.00 0.03 0.00 87 1021.6
20260905004043 55 209 3.0 7.0 0.00 0.03 0.00 87 1021.5
20260905003544 55 229 3.0 8.0 0.00 0.03 0.00 87 1021.5
20260905003059 55 204 3.0 8.0 0.00 0.03 0.00 87 1021.3
20260905002548 55 229 3.0 7.0 0.00 0.03 0.00 87 1021.3
20260905002043 55 221 2.0 7.0 0.00 0.03 0.00 87 1021.3
20260905001600 55 239 2.0 6.0 0.00 0.03 0.00 86 1021.2
20260905001045 55 221 2.0 7.0 0.00 0.03 0.00 86 1021.1
20260905000546 55 230 3.0 7.0 0.00 0.03 0.00 86 1021.1
20260905000107 55 225 2.0 7.0 0.00 0.03 0.00 86 1021.1
20260904235543 55 227 2.0 7.0 0.00 0.03 0.00 86 1021.1
20260904235043 56 244 2.0 6.0 0.00 0.03 0.00 86 1021.1
20260904234601 56 223 2.0 6.0 0.00 0.03 0.00 85 1021.1
20260904234043 56 221 2.0 6.0 0.00 0.03 0.00 85 1021.0
20260904233543 56 240 2.0 5.0 0.00 0.03 0.00 85 1021.1
20260904233100 56 213 2.0 5.0 0.00 0.03 0.00 85 1021.2
20260904232544 56 229 2.0 5.0 0.00 0.03 0.00 85 1021.1
20260904232043 56 216 2.0 5.0 0.00 0.03 0.00 85 1021.0
20260904231600 56 232 2.0 6.0 0.00 0.03 0.00 84 1021.1
20260904231043 56 219 1.0 6.0 0.00 0.03 0.00 84 1021.0
20260904230545 56 258 2.0 6.0 0.00 0.03 0.00 84 1021.0
20260904230112 56 217 3.0 7.0 0.00 0.03 0.00 84 1020.8
20260904225544 56 242 3.0 7.0 0.00 0.03 0.03 84 1020.9
20260904225043 57 250 3.0 7.0 0.00 0.03 0.03 84 1020.8
20260904224600 57 233 3.0 6.0 0.00 0.03 0.03 83 1020.9
20260904224048 57 227 2.0 7.0 0.00 0.03 0.03 83 1020.8
20260904223543 57 223 2.0 7.0 0.00 0.03 0.03 83 1020.7
20260904223104 57 227 2.0 6.0 0.00 0.03 0.03 83 1020.7
20260904222543 57 207 1.0 6.0 0.00 0.03 0.03 82 1020.7
20260904222044 57 182 2.0 5.0 0.00 0.03 0.03 82 1020.7
20260904221609 58 196 2.0 5.0 0.00 0.03 0.03 82 1020.6
20260904221047 58 219 1.0 5.0 0.00 0.03 0.03 82 1020.6
20260904220547 58 214 2.0 5.0 0.00 0.03 0.03 81 1020.6
20260904220122 58 217 3.0 6.0 0.00 0.03 0.03 81 1020.5
20260904215543 58 215 3.0 6.0 0.00 0.03 0.03 81 1020.5
20260904215043 58 207 2.0 5.0 0.00 0.03 0.03 80 1020.6
20260904214558 58 216 2.0 6.0 0.00 0.03 0.03 80 1020.6
20260904214043 59 211 2.0 6.0 0.00 0.03 0.03 80 1020.5
20260904213543 59 215 1.0 7.0 0.00 0.03 0.03 79 1020.6
20260904213102 59 252 2.0 8.0 0.00 0.03 0.03 79 1020.6
20260904212545 59 253 3.0 8.0 0.00 0.03 0.03 79 1020.4
20260904212043 59 240 2.0 7.0 0.00 0.03 0.03 79 1020.4
20260904211608 59 235 3.0 7.0 0.00 0.03 0.03 78 1020.3
20260904211044 60 275 3.0 8.0 0.00 0.03 0.03 78 1020.4
20260904210544 60 238 3.0 8.0 0.00 0.03 0.03 78 1020.4
20260904205545 60 244 3.0 8.0 0.00 0.03 0.03 78 1020.2
20260904205044 60 270 4.0 7.0 0.00 0.03 0.03 78 1020.2
20260904204603 60 261 3.0 9.0 0.00 0.03 0.03 78 1020.3
20260904204043 60 263 2.0 9.0 0.00 0.03 0.03 78 1020.3
20260904203544 60 248 3.0 7.0 0.00 0.03 0.03 78 1020.2
20260904203105 60 243 3.0 7.0 0.00 0.03 0.03 78 1020.2
20260904202546 60 247 2.0 7.0 0.00 0.03 0.03 78 1020.3
20260904202042 61 263 3.0 7.0 0.00 0.03 0.03 77 1020.3
20260904201601 61 249 2.0 7.0 0.00 0.03 0.03 77 1020.3
20260904201043 61 237 3.0 7.0 0.00 0.03 0.03 77 1020.3
20260904200543 61 278 3.0 6.0 0.00 0.03 0.03 77 1020.2
20260904200110 61 233 3.0 8.0 0.00 0.03 0.03 77 1020.3
20260904195545 61 247 3.0 8.0 0.00 0.03 0.03 76 1020.2
20260904195043 61 257 3.0 6.0 0.00 0.03 0.03 76 1020.1
20260904194610 62 247 2.0 6.0 0.00 0.03 0.03 76 1020.1
20260904194044 62 259 2.0 6.0 0.00 0.03 0.03 75 1020.0
20260904193544 62 256 2.0 7.0 0.00 0.03 0.03 75 1020.0
20260904193100 62 252 2.0 8.0 0.00 0.03 0.03 75 1019.8
20260904192544 62 258 3.0 8.0 0.00 0.03 0.03 75 1019.7
20260904192044 62 300 2.0 7.0 0.00 0.03 0.03 74 1019.5
20260904191602 62 238 3.0 10.0 0.00 0.03 0.03 74 1019.3
20260904191045 63 246 3.0 10.0 0.00 0.03 0.03 74 1019.2
20260904190546 63 254 4.0 10.0 0.00 0.03 0.03 73 1019.1
20260904190109 63 253 5.0 9.0 0.00 0.03 0.03 73 1018.9
20260904185545 63 236 3.0 10.0 0.00 0.03 0.03 72 1018.9
20260904185043 63 244 4.0 10.0 0.00 0.03 0.03 72 1019.0
20260904184613 63 227 3.0 10.0 0.00 0.03 0.03 72 1018.8
20260904184045 64 271 5.0 12.0 0.00 0.03 0.03 71 1018.7
20260904183543 64 227 4.0 16.0 0.00 0.03 0.03 71 1018.6
20260904183106 64 273 6.0 16.0 0.00 0.03 0.03 70 1018.5
20260904182545 64 241 7.0 14.0 0.00 0.03 0.03 70 1018.4
20260904182043 64 248 5.0 14.0 0.00 0.03 0.03 69 1018.5
20260904181603 64 234 6.0 12.0 0.00 0.03 0.03 68 1018.3
20260904181044 64 227 3.0 12.0 0.00 0.03 0.03 68 1018.2
20260904180543 65 257 4.0 12.0 0.00 0.03 0.03 68 1018.1
20260904180117 64 242 3.0 10.0 0.00 0.03 0.03 68 1018.3
20260904175542 64 296 4.0 12.0 0.00 0.03 0.03 67 1018.3
20260904175044 64 268 5.0 13.0 0.00 0.03 0.03 67 1018.2
20260904174622 65 286 7.0 13.0 0.00 0.03 0.03 67 1018.1
20260904174044 65 228 6.0 13.0 0.00 0.03 0.03 67 1017.9
20260904173543 65 299 5.0 13.0 0.00 0.03 0.03 67 1017.9
20260904173108 65 239 6.0 12.0 0.00 0.03 0.03 66 1017.9
20260904172543 65 278 5.0 11.0 0.00 0.03 0.03 66 1018.0
20260904172044 65 231 4.0 10.0 0.00 0.03 0.03 66 1017.8
20260904171606 65 244 5.0 14.0 0.00 0.03 0.03 66 1017.7
20260904171043 65 306 5.0 14.0 0.00 0.03 0.03 66 1017.9
20260904170542 65 258 5.0 15.0 0.00 0.03 0.03 66 1017.8
20260904170106 65 260 5.0 15.0 0.00 0.03 0.03 66 1017.8
20260904165542 65 251 6.0 13.0 0.00 0.03 0.03 66 1017.7
20260904165044 65 266 5.0 15.0 0.00 0.03 0.03 66 1017.7
20260904164603 65 235 7.0 15.0 0.00 0.03 0.03 67 1017.6
20260904164042 66 279 8.0 14.0 0.00 0.03 0.03 67 1017.7
20260904163543 66 244 7.0 13.0 0.00 0.03 0.03 67 1017.6
20260904163105 66 234 5.0 13.0 0.00 0.03 0.03 67 1017.6
20260904162543 66 245 7.0 13.0 0.00 0.03 0.03 66 1017.6
20260904162042 66 270 7.0 13.0 0.00 0.03 0.03 66 1017.5
20260904161609 66 308 4.0 15.0 0.00 0.03 0.03 66 1017.2
20260904161043 66 279 7.0 15.0 0.00 0.03 0.03 65 1017.2
20260904160543 66 225 7.0 15.0 0.00 0.03 0.03 64 1017.2
20260904160109 66 239 7.0 16.0 0.00 0.03 0.03 63 1017.3
20260904155545 66 250 7.0 16.0 0.00 0.03 0.03 63 1017.2
20260904155044 66 236 6.0 12.0 0.00 0.03 0.03 63 1017.2
20260904154604 66 246 6.0 12.0 0.00 0.03 0.03 63 1017.2
20260904154043 66 304 3.0 12.0 0.00 0.03 0.03 63 1017.3
20260904153543 66 232 6.0 20.0 0.00 0.03 0.03 62 1017.2
20260904153130 66 248 7.0 20.0 0.00 0.03 0.03 62 1017.3
20260904152543 67 285 4.0 14.0 0.00 0.03 0.03 61 1017.4
20260904152043 67 306 8.0 14.0 0.00 0.03 0.03 61 1017.2
20260904151607 67 274 5.0 16.0 0.00 0.03 0.03 61 1017.2
20260904151043 67 251 9.0 16.0 0.00 0.03 0.03 61 1017.1
20260904150543 67 267 8.0 16.0 0.00 0.03 0.03 62 1017.4
20260904150106 67 216 8.0 14.0 0.00 0.03 0.03 63 1017.1
20260904145544 67 306 6.0 16.0 0.00 0.03 0.03 63 1017.1
20260904145043 67 308 7.0 16.0 0.00 0.03 0.03 63 1017.0
20260904144603 67 299 5.0 13.0 0.00 0.03 0.03 64 1017.0
20260904144044 67 286 6.0 13.0 0.00 0.03 0.03 65 1016.8
20260904143543 67 284 5.0 12.0 0.00 0.03 0.03 66 1017.1
20260904143112 67 273 5.0 13.0 0.00 0.03 0.03 66 1016.8
20260904142543 67 302 7.0 13.0 0.00 0.03 0.03 65 1016.8
20260904142044 67 286 6.0 13.0 0.00 0.03 0.03 64 1016.8
20260904141606 67 268 6.0 13.0 0.00 0.03 0.03 67 1016.8
20260904141043 67 236 5.0 12.0 0.00 0.03 0.03 69 1016.7
20260904140542 67 218 7.0 12.0 0.00 0.03 0.03 69 1016.8
20260904140105 67 238 3.0 16.0 0.00 0.03 0.03 70 1016.6
20260904135543 67 307 5.0 16.0 0.00 0.03 0.03 69 1016.7
20260904135043 66 258 7.0 13.0 0.00 0.03 0.03 69 1016.6
20260904134609 67 313 5.0 12.0 0.00 0.03 0.03 70 1016.8
20260904134044 67 296 5.0 14.0 0.00 0.03 0.03 70 1016.6
20260904133543 67 294 7.0 15.0 0.00 0.03 0.03 69 1016.6
20260904133105 66 272 7.0 15.0 0.00 0.03 0.03 69 1016.7
20260904132543 66 236 5.0 11.0 0.00 0.03 0.03 71 1016.6
20260904132042 66 256 6.0 20.0 0.00 0.03 0.03 71 1016.7
20260904131559 66 307 10.0 20.0 0.00 0.03 0.03 71 1016.5
20260904131043 66 289 8.0 17.0 0.00 0.03 0.03 71 1016.7
20260904130543 66 271 9.0 17.0 0.00 0.03 0.03 70 1016.7
20260904130103 66 236 8.0 16.0 0.00 0.03 0.03 71 1016.6
20260904125543 66 251 8.0 15.0 0.00 0.03 0.03 71 1016.4
20260904125045 66 221 5.0 16.0 0.00 0.03 0.03 72 1016.5
20260904124556 66 202 8.0 16.0 0.00 0.03 0.03 71 1016.2
20260904124042 66 271 7.0 16.0 0.00 0.03 0.03 71 1016.4
20260904123543 66 240 8.0 14.0 0.00 0.03 0.03 72 1016.2
20260904123103 66 211 6.0 20.0 0.00 0.03 0.03 72 1016.2
20260904122543 66 273 11.0 20.0 0.00 0.03 0.03 72 1015.9
20260904122043 66 235 7.0 18.0 0.00 0.03 0.03 72 1016.0
20260904121559 67 346 5.0 19.0 0.00 0.03 0.03 73 1016.0
20260904121044 67 256 10.0 19.0 0.00 0.03 0.03 72 1015.9
20260904120543 67 261 8.0 19.0 0.00 0.03 0.03 71 1015.9
20260904120109 67 250 8.0 15.0 0.00 0.03 0.03 73 1015.9
20260904115543 67 315 7.0 15.0 0.00 0.03 0.03 73 1015.9
20260904115044 67 252 7.0 18.0 0.00 0.03 0.03 72 1015.7
20260904114600 67 286 11.0 24.0 0.00 0.03 0.03 72 1015.7
20260904114044 67 276 6.0 24.0 0.00 0.03 0.03 73 1015.6
20260904113544 67 285 10.0 24.0 0.00 0.03 0.03 73 1015.4
20260904113101 67 296 9.0 17.0 0.00 0.03 0.03 74 1015.5
20260904112545 67 240 5.0 13.0 0.00 0.03 0.03 75 1015.3
20260904112045 67 257 6.0 14.0 0.00 0.03 0.03 76 1015.4
20260904111605 66 254 6.0 14.0 0.00 0.03 0.03 77 1015.2